Weather in Staropyshminsk

Russia / Sverdlovsk Oblast     56°55′56″N   60°54′05″E
temp.,
°C
wind,
m/s
gust,
m/s
humid.,
%
clouds,
%
prec.,
mm/h
press.,
hPa
HPBL,
m
6 may, thu
thu623:00+8w5127768 2.4 10001284
02:00+7w612777 0.0 10021024
05:00+5w6128036 0.0 1004955
08:00+5w71371100 0.0 10061271
11:00+8wnw71248100 0.1 10082099
14:00+10wnw8124193 0.1 10111920
17:00+10wnw7113978 0.1 10121912
20:00+9wnw411465 0.0 10141527
7 may, fri
fri723:00+6w412560 0.0 1016437
02:00+4w310720 0.0 1018273
05:00+3wsw37795 0.0 1020125
08:00+9w3757100 0.0 1020403
11:00+14w4547100 0.0 10201082
14:00+18wsw34416 0.0 10191844
17:00+20wsw35335 0.0 10182409
20:00+16nw3751100 0.0 1019291
8 may, sat
sat823:00+13wnw2263100 0.0 102041
02:00+12wnw226771 0.0 101933
05:00+11wsw2268100 0.0 102042
08:00+14w125499 0.0 1020189
11:00+19w1234100 0.0 10192130
14:00+19nnw1133100 0.0 10192163
17:00+19n2236100 0.0 10191944
20:00+15nnw225299 0.0 101934
9 may, sun
sun923:00+13ene1159100 0.0 102024
02:00+12ne2264100 0.0 102047
05:00+10nne237999 0.0 102045
08:00+14ne365977 0.0 1020357
11:00+19ene464036 0.0 10191969
14:00+20e343497 0.0 10192246
17:00+20e343547 0.0 10192154
20:00+13se257299 0.4 1021178
10 may, mon
mon1023:00+12ne117766 0.4 102111
02:00+10nne118013 0.0 102210
05:00+9nne11835 0.0 102210
08:00+15ene12580 0.0 1023236
11:00+20ese11390 0.0 10231778
14:00+23ssw223059 0.0 10212673
17:00+22ssw333287 0.0 10212293
20:00+18sw2649100 0.0 1021132